Location: Heiligenberg
(48.5381°N, 7.3897°E)
Time: 22:21:15
(UTC+00:00)

Genesis I - Pass Details

Date: 26 May 2022
Orbit: 463 x 544 km, 64.5° (Epoch: 03 July)

Event Time Altitude Azimuth Distance (km) Brightness Sun altitude
Rises 02:54:35 0° 318° (NW) 2,717 6.9 -6.4°
Reaches altitude 10° 02:56:50 10° 316° (NW) 1,816 6.0 -6.2°
Maximum altitude 03:00:52 63° 235° (SW) 604 3.3 -5.7°
Drops below altitude 10° 03:04:49 10° 154° (SSE) 1,774 5.8 -5.2°
Sets 03:06:59 0° 151° (SSE) 2,647 6.7 -4.9°
